KC5AYO Weather Reports


time (UTC)temp
C
wind
direction
speed
KPH
gust
KPH
rain 1hr
cm
rain 24hr
cm
rain mn
cm
humidity
%
barometer
mb
20260504000509 15 256 0.0 4.8 0.00 0.00 0.00 48 1011.7
20260504000008 15 148 0.0 3.2 0.00 0.00 0.00 48 1012.2
20260503235512 15 179 0.0 1.6 0.00 0.00 0.00 49 1012.3
20260503235010 16 190 0.0 3.2 0.00 0.00 0.00 47 1012.4
20260503234522 16 188 0.0 3.2 0.00 0.00 0.00 49 1012.5
20260503234008 16 156 0.0 3.2 0.00 0.00 0.00 47 1012.3
20260503233507 16 159 0.0 3.2 0.00 0.00 0.00 49 1012.1
20260503233008 16 146 0.0 3.2 0.00 0.00 0.00 46 1012.0
20260503232507 16 115 0.0 3.2 0.00 0.00 0.00 46 1012.1
20260503232007 16 202 0.0 4.8 0.00 0.00 0.00 46 1012.1
20260503231509 16 214 0.0 6.4 0.00 0.00 0.00 45 1012.1
20260503231009 16 209 0.0 3.2 0.00 0.00 0.00 45 1012.2
20260503230506 16 212 0.0 11.3 0.00 0.00 0.00 45 1012.4
20260503230006 16 175 0.0 11.3 0.00 0.00 0.00 48 1012.5
20260503225509 16 130 0.0 8.0 0.00 0.00 0.00 45 1012.6
20260503225010 16 269 0.0 8.0 0.00 0.00 0.00 48 1012.5
20260503224506 16 153 0.0 6.4 0.00 0.00 0.00 46 1012.4
20260503224006 16 130 0.0 6.4 0.00 0.00 0.00 45 1012.1
20260503223506 16 228 0.0 6.4 0.00 0.00 0.00 45 1012.0
20260503223005 16 183 0.0 6.4 0.00 0.00 0.00 44 1011.9
20260503222503 16 135 0.0 3.2 0.00 0.00 0.00 46 1012.2
20260503222002 16 215 0.0 3.2 0.00 0.00 0.00 47 1012.6
20260503221504 16 160 0.0 8.0 0.00 0.00 0.00 48 1012.7
20260503221002 15 344 0.0 9.7 0.00 0.00 0.00 46 1012.8
20260503220502 15 134 0.0 9.7 0.00 0.00 0.00 48 1012.6
20260503220002 15 262 1.6 9.7 0.00 0.00 0.00 46 1012.4
20260503215500 15 304 0.0 8.0 0.00 0.00 0.00 50 1012.5
20260503215100 15 108 0.0 8.0 0.00 0.00 0.00 47 1012.6
20260503214601 16 205 0.0 8.0 0.00 0.00 0.00 46 1012.5
20260503214103 16 203 1.6 8.0 0.00 0.00 0.00 43 1012.6
20260503213558 16 232 0.0 8.0 0.00 0.00 0.00 43 1013.0
20260503213107 16 292 0.0 11.3 0.00 0.00 0.00 47 1013.0
20260503212557 16 241 1.6 11.3 0.00 0.00 0.00 41 1013.2
20260503212055 16 134 0.0 6.4 0.00 0.00 0.00 41 1013.2
20260503211555 16 303 0.0 8.0 0.00 0.00 0.00 44 1013.5
20260503211055 16 113 0.0 9.7 0.00 0.00 0.00 43 1013.6
20260503210557 16 211 0.0 14.5 0.00 0.00 0.00 45 1013.7
20260503210059 16 198 0.0 14.5 0.00 0.00 0.00 41 1013.9
20260503205552 16 214 0.0 6.4 0.00 0.00 0.00 42 1014.1
20260503205052 17 146 0.0 6.4 0.00 0.00 0.00 43 1014.3
20260503204555 16 171 0.0 8.0 0.00 0.00 0.00 41 1014.3
20260503204053 17 175 0.0 11.3 0.00 0.00 0.00 41 1014.2
20260503203554 17 271 0.0 17.7 0.00 0.00 0.00 43 1014.4
20260503203051 17 244 3.2 14.5 0.00 0.00 0.00 42 1014.3
20260503202550 17 297 0.0 8.0 0.00 0.00 0.00 43 1014.3
20260503202050 17 322 0.0 8.0 0.00 0.00 0.00 43 1014.2
20260503201548 17 17 0.0 8.0 0.00 0.00 0.00 39 1014.4
20260503201049 17 198 0.0 14.5 0.00 0.00 0.00 42 1014.4
20260503200548 17 284 0.0 14.5 0.00 0.00 0.00 39 1014.6
20260503200054 17 240 3.2 8.0 0.00 0.00 0.00 41 1014.6
20260503195548 16 145 0.0 9.7 0.00 0.00 0.00 41 1014.6
20260503195047 17 195 1.6 9.7 0.00 0.00 0.00 39 1014.8
20260503194548 17 290 0.0 4.8 0.00 0.00 0.00 43 1014.8
20260503194046 17 255 0.0 6.4 0.00 0.00 0.00 43 1014.9
20260503193546 17 63 0.0 9.7 0.00 0.00 0.00 40 1014.6
20260503193052 17 226 0.0 6.4 0.00 0.00 0.00 39 1014.8
20260503192545 17 203 0.0 6.4 0.00 0.00 0.00 45 1014.8
20260503192044 17 130 1.6 8.0 0.00 0.00 0.00 40 1014.9
20260503191543 17 264 0.0 9.7 0.00 0.00 0.00 44 1015.2
20260503191044 17 284 0.0 9.7 0.00 0.00 0.00 42 1015.4
20260503190544 17 144 0.0 9.7 0.00 0.00 0.00 39 1015.4
20260503190042 17 325 1.6 8.0 0.00 0.00 0.00 40 1015.4
20260503185544 17 186 0.0 8.0 0.00 0.00 0.00 39 1015.6
20260503185041 17 89 0.0 8.0 0.00 0.00 0.00 38 1015.6
20260503184551 17 131 0.0 8.0 0.00 0.00 0.00 40 1015.9
20260503184045 17 221 1.6 8.0 0.00 0.00 0.00 43 1016.1
20260503183538 17 106 0.0 3.2 0.00 0.00 0.00 39 1016.1
20260503183057 17 171 0.0 8.0 0.00 0.00 0.00 40 1016.1
20260503182536 17 234 0.0 9.7 0.00 0.00 0.00 38 1016.3
20260503182036 17 146 0.0 9.7 0.00 0.00 0.00 42 1016.5
20260503181536 17 304 0.0 4.8 0.00 0.00 0.00 40 1016.5
20260503181035 17 252 0.0 6.4 0.00 0.00 0.00 43 1016.6
20260503180534 16 251 0.0 6.4 0.00 0.00 0.00 37 1016.6
20260503180040 16 26 1.6 4.8 0.00 0.00 0.00 40 1016.8
20260503175532 16 301 0.0 9.7 0.00 0.00 0.00 37 1016.9
20260503175030 16 294 0.0 9.7 0.00 0.00 0.00 40 1017.1
20260503174530 16 205 1.6 12.9 0.00 0.00 0.00 40 1017.1
20260503174029 16 203 0.0 12.9 0.00 0.00 0.00 37 1017.1
20260503173528 16 137 1.6 9.7 0.00 0.00 0.00 36 1017.2
20260503173129 16 272 0.0 8.0 0.00 0.00 0.00 41 1017.2
20260503172531 16 333 0.0 8.0 0.00 0.00 0.00 41 1017.3
20260503172025 16 294 1.6 9.7 0.00 0.00 0.00 36 1017.2
20260503171524 16 273 0.0 8.0 0.00 0.00 0.00 40 1017.4
20260503171025 15 121 1.6 8.0 0.00 0.00 0.00 38 1017.5
20260503170522 15 198 0.0 11.3 0.00 0.00 0.00 37 1017.6
20260503151006 12 298 0.0 8.0 0.00 0.00 0.00 47 1019.0
20260503150503 13 304 1.6 12.9 0.00 0.00 0.00 43 1019.1
20260503131037 7 211 0.0 3.2 0.00 0.00 0.00 69 1019.5
20260503130533 7 267 0.0 3.2 0.00 0.00 0.00 67 1019.5
20260503110511 2 209 0.0 0.0 0.00 0.00 0.00 81 1018.7
20260503090504 2 292 0.0 0.0 0.00 0.00 0.00 92 1018.7
20260503081501 2 296 0.0 0.0 0.00 0.00 0.00 92 1018.7
20260503081100 2 296 0.0 0.0 0.00 0.00 0.00 92 1018.5
20260503080602 2 296 0.0 0.0 0.00 0.00 0.00 92 1018.6
20260503072559 2 296 0.0 0.0 0.00 0.00 0.00 92 1018.5
20260503072057 2 296 0.0 0.0 0.00 0.00 0.00 92 1018.6
20260503071607 2 296 0.0 0.0 0.00 0.00 0.00 92 1018.6
20260503071056 2 296 0.0 0.0 0.00 0.00 0.00 92 1018.6
20260503070556 2 296 0.0 0.0 0.00 0.00 0.00 91 1018.6
20260503070107 2 296 0.0 0.0 0.00 0.00 0.00 91 1018.6
20260503055051 2 303 0.0 0.0 0.00 0.00 0.00 91 1019.1
20260503054551 2 303 0.0 0.0 0.00 0.00 0.00 91 1019.2
20260503054051 2 303 0.0 0.0 0.00 0.00 0.00 91 1019.2
20260503053551 3 303 0.0 0.0 0.00 0.00 0.00 91 1019.2
20260503053050 3 303 0.0 0.0 0.00 0.00 0.00 91 1019.2
20260503052551 3 303 0.0 0.0 0.00 0.00 0.00 90 1019.3
20260503052049 2 303 0.0 0.0 0.00 0.00 0.00 90 1019.3
20260503051552 2 303 0.0 0.0 0.00 0.00 0.00 89 1019.2
20260503051048 3 303 0.0 0.0 0.00 0.00 0.00 89 1019.2
20260503050548 3 308 0.0 3.2 0.00 0.00 0.00 89 1019.3
20260503050047 3 333 0.0 3.2 0.00 0.00 0.00 90 1019.4
20260503045550 3 333 0.0 3.2 0.00 0.00 0.00 91 1019.3
20260503045050 3 333 0.0 3.2 0.00 0.00 0.00 91 1019.4
20260503044546 3 333 0.0 0.0 0.00 0.00 0.00 89 1019.3
20260503044046 3 333 0.0 0.0 0.00 0.00 0.00 89 1019.2
20260503043544 3 333 0.0 0.0 0.00 0.00 0.00 89 1019.1
20260503043047 3 333 0.0 0.0 0.00 0.00 0.00 88 1019.0
20260503042543 3 333 0.0 0.0 0.00 0.00 0.00 88 1019.0
20260503042043 3 333 0.0 0.0 0.00 0.00 0.00 87 1019.0
20260503041544 3 333 0.0 0.0 0.00 0.00 0.00 87 1019.0
20260503041041 3 333 0.0 0.0 0.00 0.00 0.00 86 1018.9
20260503040542 3 333 0.0 0.0 0.00 0.00 0.00 85 1019.0
20260503040047 3 333 0.0 0.0 0.00 0.00 0.00 85 1019.1
20260503035539 3 333 0.0 0.0 0.00 0.00 0.00 85 1019.0
20260503035041 3 333 0.0 0.0 0.00 0.00 0.00 86 1019.0
20260503034558 4 333 0.0 0.0 0.00 0.00 0.00 86 1019.1
20260503034039 4 333 0.0 0.0 0.00 0.00 0.00 85 1019.0
20260503033539 4 333 0.0 0.0 0.00 0.00 0.00 84 1019.0
20260503033043 4 333 0.0 0.0 0.00 0.00 0.00 83 1019.0
20260503032538 4 333 0.0 0.0 0.00 0.00 0.00 83 1019.0
20260503032038 4 333 0.0 0.0 0.00 0.00 0.00 83 1019.0
20260503031542 4 333 0.0 0.0 0.00 0.00 0.00 82 1019.1
20260503031038 5 333 0.0 0.0 0.00 0.00 0.00 82 1019.1
20260503030537 5 333 0.0 0.0 0.00 0.00 0.00 82 1019.1
20260503030050 5 333 0.0 0.0 0.00 0.00 0.00 82 1019.0
20260503025537 5 333 0.0 0.0 0.00 0.00 0.00 80 1019.0
20260503025037 5 333 0.0 0.0 0.00 0.00 0.00 79 1019.0
20260503024537 5 333 0.0 0.0 0.00 0.00 0.00 79 1019.0
20260503024037 5 333 0.0 0.0 0.00 0.00 0.00 78 1018.9
20260503023537 5 333 0.0 0.0 0.00 0.00 0.00 76 1018.9
20260503023037 5 333 0.0 0.0 0.00 0.00 0.00 72 1018.8
20260503022535 5 333 0.0 0.0 0.00 0.00 0.00 71 1018.7
20260503022038 5 333 0.0 0.0 0.00 0.00 0.00 69 1018.6
20260503021542 6 333 0.0 0.0 0.00 0.00 0.00 69 1018.5
20260503021035 6 333 0.0 0.0 0.00 0.00 0.00 69 1018.6
20260503020535 6 333 0.0 0.0 0.00 0.00 0.00 69 1018.5
20260503020039 6 333 0.0 0.0 0.00 0.00 0.00 71 1018.4
20260503015535 6 333 0.0 0.0 0.00 0.00 0.00 71 1018.4
20260503015034 6 333 0.0 0.0 0.00 0.00 0.00 70 1018.3
20260503014535 6 333 0.0 0.0 0.00 0.00 0.00 67 1018.3
20260503014037 7 333 0.0 0.0 0.00 0.00 0.00 67 1018.2
20260503013534 7 333 0.0 0.0 0.00 0.00 0.00 63 1018.2
20260503013035 7 333 0.0 0.0 0.00 0.00 0.00 64 1018.1
20260503012535 8 333 0.0 0.0 0.00 0.00 0.00 59 1018.1
20260503012035 8 333 0.0 0.0 0.00 0.00 0.00 58 1018.0
20260503011535 8 333 0.0 0.0 0.00 0.00 0.00 57 1017.9
20260503011033 9 336 0.0 0.0 0.00 0.00 0.00 55 1017.9
20260503010533 9 336 0.0 0.0 0.00 0.00 0.00 54 1017.8
20260503010035 9 336 0.0 0.0 0.00 0.00 0.00 51 1017.8
20260503005533 9 336 0.0 0.0 0.00 0.00 0.00 49 1017.8
20260503005035 9 336 0.0 3.2 0.00 0.00 0.00 51 1017.8
20260503004533 10 336 0.0 3.2 0.00 0.00 0.00 46 1017.7
20260503004035 10 335 0.0 3.2 0.00 0.00 0.00 45 1017.8
20260503003532 10 343 0.0 3.2 0.00 0.00 0.00 44 1017.8
20260503003034 10 350 0.0 3.2 0.00 0.00 0.00 45 1017.8
20260503002532 10 315 0.0 3.2 0.00 0.00 0.00 44 1017.7
20260503002033 10 313 0.0 3.2 0.00 0.00 0.00 46 1017.7
20260503001531 10 343 0.0 3.2 0.00 0.00 0.00 44 1017.5
20260503001031 10 335 0.0 3.2 0.00 0.00 0.00 46 1017.5